Regional Weather Roundup
Issued by NWS Wakefield, VA

Home | Current Version | Previous Version | Text Only | Print | Product List | Glossary Off
Versions: 1 2 3 4 5 6 7 8 9 10 11 12 13 14 15 16 17 18 19 20 21 22 23 24 25 26 27 28 29 30 31 32 33 34 35 36 37 38 39 40 41 42 43 44 45 46 47 48 49 50

904
ASUS41 KAKQ 081815
RWRAKQ

REGIONAL WEATHER ROUNDUP
NATIONAL WEATHER SERVICE WAKEFIELD VA
100 PM EST THU DEC 08 2016

Note: "fair" indicates few or no clouds below 12,000 feet with no
significant weather and/or obstructions to visibility. * = Denotes
station may not report precipitation (e.g., rain,snow,etc.),
thunder or fog.

VAZ042-051-052>054-056-081900-
NORTHERN VIRGINIA

CITY           SKY/WX    TMP DP  RH WIND       PRES   REMARKS
WASH NATIONAL  CLOUDY    48  22  35 W8G16     30.00F
DULLES         CLOUDY    45  19  35 W14       30.00F
FORT BELVOIR   CLOUDY    47  23  39 VRB6      30.00F
QUANTICO       CLOUDY    49  25  39 W10       30.02F
FREDERICKSBRG* CLOUDY    49  29  45 NW6       30.01F
STAFFORD*      CLOUDY    46  27  46 W9        30.05F
WARRENTON      CLOUDY    47  11  24 W15G23    30.00F
CULPEPER*      PTSUNNY   47  25  42 W7        30.02F
MANASSAS*        N/A    N/A N/A N/A NW10      30.02F
LEESBURG*      CLOUDY    45  23  42 W14G25    30.01F
WINCHESTER     MOSUNNY   43  18  36 W16G26    29.99F
FRONT ROYAL*   FAIR      45  18  33 W15G25    29.99F
LURAY*         FAIR      41  28  60 SW6       30.00F
$$

VAZ048-049-060>072-079>083-081900-
CENTRAL AND SOUTH CENTRAL VIRGINIA

CITY           SKY/WX    TMP DP  RH WIND       PRES   REMARKS
RICHMOND       PTSUNNY   50  31  48 NW6       30.02F
CHESTERFIELD*  MOCLDY    54  21  28 NW14      30.04F
PETERSBURG*    CLOUDY    49  28  44 W7        30.04S
HANOVER        PTSUNNY   50  28  42 NW9G18    30.03F
TAPPAHANNOCK*  MOSUNNY   48  38  68 CALM      30.02F
QUINTON*       CLOUDY    49  36  60 NW7       30.02S
CHARLOTTSVILLE CLOUDY    46  21  37 CALM      30.02F
GORDONSVILLE*  FAIR      46  22  38 CALM      30.02S
ORANGE*          N/A     46  25  42 SW8       30.03F
LOUISA*        PTSUNNY   54  27  35 W10       30.01S
BUMPASS*       FAIR      50  23  34 W8        30.02F
FARMVILLE*     CLOUDY    51  21  31 W5        30.04F
CREWE*         FAIR      51  23  33 W9G16     30.04S
FORT PICKETT*  FAIR      49  21  33 NW8       30.04S
CHASE CITY*    FAIR      48  19  31 W8G18     30.07S
CLARKSVILLE*   FAIR      48  25  40 W5        30.07F
SOUTH HILL*    MOSUNNY   48  28  47 W6        30.12R
LAWRENCEVILLE* FAIR      49  27  41 NW7       30.05S
EMPORIA*       CLOUDY    50  32  50 W9        30.06S
$$

VAZ088>098-081900-
SOUTHEAST VIRGINIA

CITY           SKY/WX    TMP DP  RH WIND       PRES   REMARKS
NORFOLK        CLOUDY    48  45  89 VRB6      29.99F
VIRGINIA BEACH CLOUDY    49  46  90 W8        29.98F FOG
NORFOLK NAVAL  CLOUDY    49  45  86 NW9G17    30.00F
WEST POINT*    PTSUNNY   47  42  81 NW5       30.04S
SALUDA*        CLOUDY    43  43  99 N5        30.01F
NEWPORT NEWS   CLOUDY    48  45  89 NW13      30.00F
LANGLEY AFB    CLOUDY    48  46  93 NW10      29.99F
FORT EUSTIS    CLOUDY    47  43  86 NW12      29.98F
WILLIAMSBURG*  CLOUDY    50  43  76 N10       30.02F
HR EXEC AP*    CLOUDY    48  45  87 W5        29.99F
FRANKLIN*      CLOUDY    49  41  74 W10       30.03S
US460-WAKEFLD  CLOUDY    50  42  74 VRB6      30.03S
$$

VAZ020-022-025-037-045-081900-
WEST CENTRAL AND SOUTHWEST VIRGINIA

CITY           SKY/WX    TMP DP  RH WIND       PRES   REMARKS
STAUNTON*      PTSUNNY   40  21  47 SW8       30.03F
WAYNESBORO*    FAIR      39  15  38 SW7G16    30.01F
HOT SPRINGS VA PTSUNNY   34  10  37 W18G28    29.93R WCI  23
LYNCHBURG      CLOUDY    43  19  38 W10G18    30.08F
DANVILLE       MOSUNNY   48  20  32 W13G21    30.10F
SOUTH BOSTON*  FAIR      49  17  27 NW13G22   30.08F
MARTINSVILLE   MOSUNNY   45  18  34 W7        30.13F
ROANOKE        CLOUDY    42  20  41 W8        30.09F
BLACKSBURG     PTSUNNY   39  20  45 W18G24    30.08F
DUBLIN*        PTSUNNY   40  19  43 W18G30    30.08F
MARION*        MOSUNNY   39  17  41 W23G35    30.10F
HILLSVILLE*    MOSUNNY   35  19  51 W17G29    30.04F WCI  25
RICHLANDS*     FAIR      35  16  45 NW14G24   30.12F
WISE*          PTSUNNY   34  14  44 W12G22    30.16F
ABINGDON*      MOSUNNY   43  20  40 NW14G22   30.15S
$$

MDZ021>025-VAZ099-100-081900-
SOUTHERN MARYLAND AND THE DELMARVA PENINSULA

CITY           SKY/WX    TMP DP  RH WIND       PRES   REMARKS
PATUXENT RIVER PTSUNNY   45  39  79 CALM      30.00F
BAY BRIDGE APT CLOUDY    46  23  39 W13G18    29.99F
LEONARDTOWN    CLOUDY    45  37  76 CALM      30.01F
DOVER          CLOUDY    43  36  77 SW8       29.95F
GEORGETOWN     CLOUDY    43  36  76 SW7       29.99F
EASTON         NOT AVBL
CAMBRIDGE      NOT AVBL
SALISBURY      CLOUDY    41  36  82 CALM      30.00F
OCEAN CITY     CLOUDY    42  35  76 NW8       30.01S
WALLOPS ISLAND LGT RAIN  42  36  79 NW7       30.01F
ACCOMACK*      RAIN      43  41  93 N3        30.01S
$$

NCZ012>017-030>032-081900-
NORTH CENTRAL AND EASTERN NORTH CAROLINA

CITY           SKY/WX    TMP DP  RH WIND       PRES   REMARKS
ROANOKE RAPIDS NOT AVBL
RALEIGH        CLOUDY    50  22  33 NW9       30.09F
ELIZABETH CITY CLOUDY    52  48  86 W10       30.00F
AHOSKIE*       CLOUDY    49  39  67 CALM      30.03F
EDENTON*       CLOUDY    55  47  75 NW7       30.01F
CURRITUCK*     CLOUDY    51  50  96 W9        30.00F
KILL DEVIL HLS CLOUDY    55  51  83 CALM      29.97F
MANTEO         CLOUDY    56  49  77 W8        29.99F
CAPE HATTERAS  PTSUNNY   61  51  70 W8        29.99
TARBORO*       NOT AVBL
GOLDSBORO      CLOUDY    54  35  48 NW14      30.05S
WASHINGTON     CLOUDY    53  42  66 NW8       30.03F
GREENVILLE     CLOUDY    52  34  50 NW12G18   30.07R
NEW BERN       CLOUDY    56  49  77 W13G18    30.04F
WILMINGTON     MOSUNNY   60  50  69 W9        30.04F
$$

VAZ048-081900-
ELSEWHERE

CITY           SKY/WX    TMP DP  RH WIND       PRES   REMARKS
HARRISBURG PA  CLOUDY    43  20  39 W23G30    29.95F
BALTIMORE      PTSUNNY   45  19  35 W18G25    29.97F
ANNAPOLIS        N/A     47  23  38 W5        29.99F
ANDREWS AFB    CLOUDY    46  21  37 W15       29.98F
PHILADELPHIA   CLOUDY    45  20  36 W12       29.94F
HENDERSON NC   CLOUDY    46  21  37 NW8G16    30.08F
GREENSBORO     CLOUDY    47  19  33 NW16G24   30.10F
ROCKY MOUNT    CLOUDY    50  29  44 NW10      30.07F
$$

VAZ100-081900-
MARINE

STATION/POSITION TIME  TEMP    WIND        PRES    WAVE   SWELL
                       AIR SEA DIR/SP/G            HT/PER HT/PER
                 (UTC) (F)     (DEG/KT/KT) (MB)    (FT/S) (FT/S)
BRANDYWINE LGT   1742   44     260/ 20/ 22   N/A
CAPE MAY NJ      1742   45 48  250/ 15/ 18 1014.3F
LEWES DE         1742   44 47  250/  9/ 13 1014.9F
OCEAN-CITY-INLET 1742   43 49  340/  9/ 11 1016.2F
WACHAPREAGUE VA  1742   44 48  310/  2/  5 1015.9R
THOMAS POINT MD  1800   45 48  280/ 16/ 18   N/A
GOOSES REEF MD   1750   44     200/  6/  8 1016.4F
COVE POINT MD    1742   43     220/  3/  5 1016.6F
SOLOMONS ISLAND  1742   44 50  220/  2/  3   N/A
BISHOPS HEAD MD  1742   43 47  330/  2/  3 1016.4F
PINEY POINT MD   1748          180/  1/  3   N/A
POTOMAC MD       1750   44      40/  4/  4 1015.3F
CAMBRIDGE MD     1742   43 47  210/  4/  6 1015.0F
LEWISETTA VA     1742   44 48   90/  2/  4 1016.0F
RAPPAHANNOCK LGT 1748           10/ 10/ 11 1016.3F
STINGRAY PT      1750   43      20/  6/  8 1016.4F
YORK RVR RNG VA  1742   46     320/ 11/ 13 1015.5S
YORKTOWN VA      1742   46 51  320/ 13/ 17 1015.8R
JAMESTOWN VA     1750   46     300/ 10/ 12   N/A
DOMINION TERM VA 1742   48     320/ 11/ 14 1015.6F
KIPTOPEKE VA     1748      51  310/ 11/ 12   N/A
CHES BAY BRIDGE  1736   48 52  290/ 12/ 13 1015.4F
CAPE HENRY VA    1736   48     270/ 10/ 15   N/A
WILLOUBY STN VA  1736   47     290/  9/ 10 1016.6F
S CRANEY ISL VA  1736   48     290/  7/ 11 1015.7F
CAPE HENRY BUOY  1742      54                N/A     3/11   2/11
CAPE CHARLES BUO 1756      54                N/A     3/ 8   2/11
OFFSHORE WE BUOY 1751      56                N/A     3/ 8   2/11
64NM E OF VA BCH 1750   54 59  240/  8/ 12 1014.7F   4/ 9   3/ 9
DUCK PIER NC     1736   52 54  300/  5/  7 1015.1F
44100 DUCK FRF   1705      55                N/A     3/11   2/11
OREGON INLET NC  1736   54 55  200/  4/  5 1015.4F
HATTERAS NC      1736   58 61  260/ 10/ 12 1015.3F
DIAMOND SHLS NC  1750   63 78  250/ 19/ 25 1015.0F   4/11   3/11
CAPE LOOKOUT NC  1700   56     270/ 16/ 20 1016.8F
$$




USA.gov is the U.S. government's official web portal to all federal, state and local government web resources and services.